Showing default

COSMOS 2508, 40921

Orbit data source: Space-Track

COSMOS 2508, 40921 is a payload satellite owned by VVKO VKS (CIS) in LEO that was launched on Wed, 23 Sep 2015 UTC via an ROKOT launch vehicle from the Plesetsk Missile And Space Complex (PKMTR). Payload-class satellites include a variety of spacecraft equipped with specific instruments for various scientific and technological missions. These include communications satellites like Starlink; space stations such as the ISS; scientific satellites like the Hubble; Earth observation satellites from companies like Planet Labs, Umbra, and HawkEye 360; GPS; miniature CubeSats for education and research; and military/defense satellites.

Loading next visibility...
Identifier
40921, 2015-050B
Orbit
LEO
Country
Flag of CISCIS
Related business
Manufacturer
Resehetnev ISS
Mission
Operational Defense Communications
Bus & Motor
STRELA-3M, Unknown motor
Mass
280 kg wet, 280 kg dry
Launch date (UTC)
2015-09-23 (10 years ago)
Launch vehicle
ROKOT
Launch site
Plesetsk Missile And Space Complex (PKMTR)
Object type
Payload
Rocket body
Debris
Shape & HBR
Cyl + 1 Ant, 3.5 m
Radar Cross Section
1.583 m², Large (>1 m²)

Expand to show TLE details & history
Last TLE update: 18 hours ago

TLE from 18 hours ago
0 COSMOS 2508
1 40921U 15050B   25260.30686631  .00000040  00000-0  21584-3 0  9992
2 40921  82.4829 248.1326 0012499 259.0531 100.9143 12.42901523452948
Epoch: 2025-09-17T07:21Z
TLE epoch observation values (Epoch: 2025-09-17T07:21:53.249Z)
Latitude
0.00004°
Longitude
141.17603°
Altitude
1,498.902 km
Speed
7.114 km/s
True Right ascension
16h 32m 31s
True Declination
0° 00' 00"
Sunlit
Object was in daylight at epoch
Visualization orbit readout
Latitude
Unknown
Longitude
Unknown
Altitude
Unknown
Speed
Unknown
Apparent Right ascension
Unknown
Apparent Declination
Unknown
Sunlit
N/A
Visualization observer readout
Local Sidereal Time
18:28:21
Azimuth
Unknown
Elevation
Unknown
Doppler factor
Unknown
Orbital elements
Apogee altitude
1,501.516 km
Perigee altitude
1,481.843 km
Semi-major axis
7,869.816 km
Eccentricity
0.00125
Inclination
82.4829°
RAAN
248.1326°
Arg. of periapsis
259.0531°
True anomaly
101.0549°
Mean anomaly
100.9143°
Eccentric anomaly
100.9846°
Mean motion
3.10883 °/min
Orbital period
115.8 mins
BSTAR
0.00021584
Loading maneuver chart data...
Computing Atmospheric mass density...
Loading historical data...
Loading historical data...
Loading historical data...
Loading historical data...
Loading historical data...
Loading historical data...
Loading historical data...
Other satellites on launch #50 in the year 2015 (2015-09-23 UTC)

Documentation

Showing up to 5 results
|